Location: Les Gen�tes
(46.3104°N, 1.5969°E)
Time: 04:26:57
(UTC+00:00)

STARLINK-1208 - Pass Details

Date: 01 June 2020
Orbit: 549 x 550 km, 53.0° (Epoch: 07 July)

Event Time Altitude Azimuth Distance (km) Brightness Sun altitude
Rises 23:24:34 0° 300° (WNW) 2,720 7.7 -21.2°
Reaches altitude 10° 23:26:49 10° 303° (WNW) 1,825 6.8 -21.2°
Maximum altitude 23:30:57 64° 26° (NNE) 613 4.0 -21.3°
Enters shadow 23:32:49 30° 97° (E) 992 4.8 -21.3°
